Location: B�di�
(14.6834°N, 3.1047°W)
Time: 21:46:22
(UTC+00:00)

Cosmos 1605 Rocket - Pass Details

Date: 24 January 2020
Orbit: 945 x 1005 km, 82.9° (Epoch: 20 February)

Event Time Altitude Azimuth Distance (km) Brightness Sun altitude
Rises 19:36:28 0° 170° (S) 3,645 7.1 -21.4°
Reaches altitude 10° 19:39:02 10° 164° (SSE) 2,708 6.3 -22.0°
Maximum altitude 19:44:58 48° 91° (E) 1,259 4.1 -23.4°
Enters shadow 19:45:11 48° 85° (E) 1,262 4.1 -23.5°
